ARG1487 SBFL-SACO

Flight info

Callsign ARG1487
Flight time N/A
Altitude 38000
Route UGREV UN857 NELOX UM418 MAVBI MAVBI2X
Aircraft B737/M-SDE2E3FGHIRWXY/LB1

Departure

Time 2026-04-08 21:07
Airport Hercílio Luz International Airport (SBFL)

Arrival

Time N/A
Airport Ingeniero Aeronáutico Ambrosio L.V. Taravella International Airport (SACO)
Time Latitude Longitude Altitude Speed Heading
2026-04-08 20:37 -27.67282 -48.54539 29 ft 0 kts 212°
2026-04-08 20:57 -27.67277 -48.54536 28 ft 0 kts 212°
2026-04-08 20:57 -27.67263 -48.54529 28 ft 2 kts 186°
2026-04-08 20:58 -27.67249 -48.54530 27 ft 2 kts 163°
2026-04-08 20:58 -27.67235 -48.54538 26 ft 2 kts 138°
2026-04-08 20:58 -27.67228 -48.54546 26 ft 0 kts 122°
2026-04-08 20:58 -27.67225 -48.54553 26 ft 0 kts 120°
2026-04-08 21:00 -27.67227 -48.54549 26 ft 2 kts 120°
2026-04-08 21:00 -27.67253 -48.54498 28 ft 8 kts 121°
2026-04-08 21:01 -27.67273 -48.54461 30 ft 7 kts 122°
2026-04-08 21:01 -27.67300 -48.54398 31 ft 9 kts 88°
2026-04-08 21:01 -27.67263 -48.54353 29 ft 15 kts 32°
2026-04-08 21:01 -27.67233 -48.54249 26 ft 12 kts 120°
2026-04-08 21:02 -27.67261 -48.54198 26 ft 10 kts 121°
2026-04-08 21:02 -27.67295 -48.54132 26 ft 8 kts 120°
2026-04-08 21:02 -27.67324 -48.54075 26 ft 8 kts 122°
2026-04-08 21:02 -27.67353 -48.54026 26 ft 7 kts 124°
2026-04-08 21:03 -27.67379 -48.53979 26 ft 6 kts 121°
2026-04-08 21:03 -27.67407 -48.53926 26 ft 10 kts 120°
2026-04-08 21:03 -27.67459 -48.53827 26 ft 19 kts 122°
2026-04-08 21:03 -27.67532 -48.53692 26 ft 19 kts 121°
2026-04-08 21:04 -27.67602 -48.53564 23 ft 19 kts 122°
2026-04-08 21:04 -27.67670 -48.53437 22 ft 18 kts 122°
2026-04-08 21:04 -27.67728 -48.53330 22 ft 14 kts 122°
2026-04-08 21:04 -27.67775 -48.53241 22 ft 12 kts 120°
2026-04-08 21:05 -27.67805 -48.53160 22 ft 10 kts 86°
2026-04-08 21:05 -27.67765 -48.53099 22 ft 9 kts 36°
2026-04-08 21:05 -27.67711 -48.53065 21 ft 6 kts 23°
2026-04-08 21:05 -27.67674 -48.53073 20 ft 6 kts 301°
2026-04-08 21:06 -27.67670 -48.53081 20 ft 0 kts 301°
2026-04-08 21:06 -27.67668 -48.53084 20 ft 2 kts 301°
2026-04-08 21:06 -27.67522 -48.53357 22 ft 81 kts 301°
2026-04-08 21:06 -27.67097 -48.54148 23 ft 150 kts 300°
2026-04-08 21:07 -27.66522 -48.55220 581 ft 164 kts 297°
2026-04-08 21:07 -27.65730 -48.56759 1497 ft 180 kts 300°
2026-04-08 21:07 -27.65263 -48.57568 1895 ft 191 kts 300°
2026-04-08 21:07 -27.64510 -48.58924 2308 ft 219 kts 299°
2026-04-08 21:08 -27.63675 -48.60451 2918 ft 239 kts 299°
2026-04-08 21:08 -27.62784 -48.62083 3725 ft 253 kts 299°
2026-04-08 21:08 -27.62032 -48.63468 4367 ft 264 kts 299°
2026-04-08 21:08 -27.61079 -48.65228 5340 ft 271 kts 299°
2026-04-08 21:09 -27.60101 -48.67045 6360 ft 275 kts 299°
2026-04-08 21:09 -27.58772 -48.69516 7636 ft 282 kts 299°
2026-04-08 21:09 -27.58089 -48.70791 7861 ft 288 kts 299°
2026-04-08 21:09 -27.57070 -48.72695 7804 ft 283 kts 299°
2026-04-08 21:10 -27.56049 -48.74603 7807 ft 279 kts 298°
2026-04-08 21:10 -27.55319 -48.76589 7799 ft 276 kts 277°
2026-04-08 21:10 -27.55469 -48.78522 7805 ft 274 kts 249°
2026-04-08 21:10 -27.56482 -48.80358 7808 ft 275 kts 232°
2026-04-08 21:11 -27.57754 -48.81932 7800 ft 275 kts 218°
2026-04-08 21:11 -27.59505 -48.82798 7808 ft 277 kts 193°
2026-04-08 21:11 -27.61280 -48.83171 7803 ft 278 kts 193°
2026-04-08 21:11 -27.63062 -48.83613 7803 ft 277 kts 195°
2026-04-08 21:12 -27.65036 -48.84135 7802 ft 277 kts 195°
2026-04-08 21:12 -27.66922 -48.84632 7802 ft 277 kts 195°
2026-04-08 21:12 -27.68796 -48.85131 7803 ft 277 kts 195°
2026-04-08 21:12 -27.70657 -48.85630 7802 ft 277 kts 195°
2026-04-08 21:13 -27.72535 -48.86133 7803 ft 277 kts 195°
2026-04-08 21:13 -27.74409 -48.86636 7856 ft 284 kts 195°
2026-04-08 21:13 -27.76392 -48.87125 8653 ft 295 kts 192°
2026-04-08 21:13 -27.79028 -48.87641 10159 ft 292 kts 192°
2026-04-08 21:14 -27.80364 -48.87912 10631 ft 300 kts 192°
2026-04-08 21:14 -27.82512 -48.88353 10932 ft 327 kts 192°
2026-04-08 21:14 -27.84792 -48.88816 11404 ft 346 kts 192°
2026-04-08 21:14 -27.87186 -48.89301 12205 ft 354 kts 192°
2026-04-08 21:15 -27.89631 -48.89798 13102 ft 359 kts 192°
2026-04-08 21:15 -27.92901 -48.90464 14272 ft 364 kts 193°
2026-04-08 21:15 -27.94559 -48.90802 14848 ft 367 kts 193°
2026-04-08 21:15 -27.97905 -48.91484 15959 ft 372 kts 194°
2026-04-08 21:16 -27.99462 -48.91802 16455 ft 374 kts 194°
2026-04-08 21:16 -28.02923 -48.92509 17506 ft 380 kts 194°
2026-04-08 21:16 -28.04663 -48.92864 18014 ft 383 kts 195°
2026-04-08 21:16 -28.07274 -48.93397 18747 ft 387 kts 195°
2026-04-08 21:17 -28.09924 -48.93940 19464 ft 391 kts 195°
2026-04-08 21:17 -28.12613 -48.94490 20166 ft 395 kts 196°
2026-04-08 21:17 -28.15319 -48.95044 20836 ft 399 kts 196°
2026-04-08 21:17 -28.18006 -48.95732 21479 ft 399 kts 202°
2026-04-08 21:18 -28.20589 -48.96798 22080 ft 397 kts 211°
2026-04-08 21:18 -28.25080 -49.00295 23193 ft 394 kts 229°
2026-04-08 21:18 -28.26984 -49.02566 23736 ft 395 kts 234°
2026-04-08 21:19 -28.28809 -49.04882 24248 ft 401 kts 234°
2026-04-08 21:19 -28.31368 -49.08013 24941 ft 407 kts 233°
2026-04-08 21:19 -28.32658 -49.09587 25268 ft 410 kts 234°
2026-04-08 21:19 -28.35228 -49.12755 25930 ft 416 kts 234°
2026-04-08 21:20 -28.36535 -49.14373 26236 ft 419 kts 235°
2026-04-08 21:20 -28.38518 -49.16830 26720 ft 422 kts 235°
2026-04-08 21:20 -28.41160 -49.20105 27337 ft 427 kts 236°
2026-04-08 21:20 -28.42487 -49.21753 27696 ft 428 kts 236°
2026-04-08 21:21 -28.44509 -49.24264 28215 ft 430 kts 236°
2026-04-08 21:21 -28.46506 -49.26748 28728 ft 431 kts 236°
2026-04-08 21:21 -28.48516 -49.29251 29221 ft 432 kts 236°
2026-04-08 21:21 -28.50539 -49.31772 29705 ft 433 kts 236°
2026-04-08 21:22 -28.52570 -49.34304 30178 ft 434 kts 236°
2026-04-08 21:22 -28.54598 -49.36835 30664 ft 434 kts 236°
2026-04-08 21:22 -28.56618 -49.39348 31530 ft 424 kts 237°
2026-04-08 21:22 -28.58581 -49.41793 32229 ft 418 kts 237°
2026-04-08 21:23 -28.60519 -49.44219 32789 ft 414 kts 237°
2026-04-08 21:23 -28.63083 -49.47427 33578 ft 408 kts 237°
2026-04-08 21:23 -28.64344 -49.49006 33912 ft 406 kts 237°
2026-04-08 21:23 -28.66226 -49.51365 34367 ft 403 kts 238°
2026-04-08 21:24 -28.68100 -49.53719 34726 ft 403 kts 238°
2026-04-08 21:24 -28.69900 -49.55979 35081 ft 402 kts 238°
2026-04-08 21:24 -28.71769 -49.58325 35432 ft 401 kts 238°
2026-04-08 21:24 -28.73630 -49.60663 35754 ft 401 kts 238°
2026-04-08 21:25 -28.76107 -49.63777 36193 ft 399 kts 238°
2026-04-08 21:25 -28.77367 -49.65362 36384 ft 399 kts 238°
2026-04-08 21:25 -28.79842 -49.68478 36780 ft 399 kts 238°
2026-04-08 21:25 -28.81079 -49.70034 36996 ft 399 kts 238°
2026-04-08 21:26 -28.82938 -49.72376 37267 ft 399 kts 238°
2026-04-08 21:26 -28.84809 -49.74734 37529 ft 399 kts 238°
2026-04-08 21:26 -28.86653 -49.77059 37783 ft 399 kts 238°
2026-04-08 21:26 -28.88525 -49.79425 37842 ft 403 kts 238°
2026-04-08 21:27 -28.92349 -49.84154 37856 ft 403 kts 236°
2026-04-08 21:27 -28.96214 -49.88712 37871 ft 400 kts 237°
2026-04-08 21:28 -29.00074 -49.93329 37885 ft 402 kts 237°
2026-04-08 21:28 -29.03943 -49.97957 37885 ft 407 kts 237°
2026-04-08 21:29 -29.08537 -50.03458 37885 ft 409 kts 238°
2026-04-08 21:29 -29.11799 -50.07369 37885 ft 411 kts 238°
2026-04-08 21:30 -29.15753 -50.12116 37885 ft 413 kts 238°
2026-04-08 21:30 -29.19736 -50.16901 37885 ft 413 kts 238°
2026-04-08 21:31 -29.23627 -50.21581 37885 ft 411 kts 238°
2026-04-08 21:31 -29.27561 -50.26322 37885 ft 412 kts 238°
2026-04-08 21:32 -29.31527 -50.31108 37885 ft 413 kts 238°
2026-04-08 21:32 -29.35421 -50.35810 37885 ft 413 kts 238°
2026-04-08 21:33 -29.39357 -50.40570 37885 ft 412 kts 238°
2026-04-08 21:33 -29.43306 -50.45351 37885 ft 413 kts 238°
2026-04-08 21:34 -29.47906 -50.50927 37885 ft 412 kts 238°
2026-04-08 21:34 -29.51174 -50.54895 37885 ft 413 kts 238°
2026-04-08 21:35 -29.55079 -50.59720 37885 ft 412 kts 239°
2026-04-08 21:35 -29.58887 -50.64581 37885 ft 411 kts 239°
2026-04-08 21:36 -29.62721 -50.69441 37885 ft 411 kts 239°
2026-04-08 21:36 -29.66544 -50.74297 37885 ft 409 kts 240°
2026-04-08 21:37 -29.70352 -50.79138 37885 ft 408 kts 239°
2026-04-08 21:37 -29.74164 -50.83990 37885 ft 408 kts 240°
2026-04-08 21:38 -29.77943 -50.88808 37885 ft 409 kts 239°
2026-04-08 21:38 -29.81768 -50.93687 37885 ft 409 kts 239°
2026-04-08 21:39 -29.85566 -50.98540 37885 ft 410 kts 239°
2026-04-08 21:39 -29.89382 -51.03420 37885 ft 410 kts 239°
2026-04-08 21:40 -29.93212 -51.08324 37885 ft 411 kts 238°
2026-04-08 21:40 -29.96958 -51.13266 37884 ft 405 kts 243°
2026-04-08 21:41 -29.99596 -51.18788 37885 ft 386 kts 258°
2026-04-08 21:41 -30.00732 -51.24712 37885 ft 377 kts 267°
2026-04-08 21:42 -30.01645 -51.30663 37885 ft 378 kts 266°
2026-04-08 21:42 -30.02564 -51.36643 37885 ft 378 kts 266°
2026-04-08 21:43 -30.03123 -51.40394 37885 ft 378 kts 266°
2026-04-08 21:43 -30.04010 -51.46354 37885 ft 377 kts 266°
2026-04-08 21:44 -30.04892 -51.52342 37885 ft 377 kts 266°
2026-04-08 21:44 -30.05772 -51.58350 37884 ft 378 kts 266°
2026-04-08 21:45 -30.06643 -51.64326 37885 ft 378 kts 266°
2026-04-08 21:45 -30.07499 -51.70214 37885 ft 378 kts 267°
2026-04-08 21:46 -30.08363 -51.76174 37885 ft 377 kts 267°
2026-04-08 21:46 -30.09271 -51.82120 37885 ft 379 kts 266°
2026-04-08 21:47 -30.10249 -51.87988 37885 ft 378 kts 266°
2026-04-08 21:47 -30.11109 -51.93980 37885 ft 378 kts 267°
2026-04-08 21:48 -30.11980 -51.99968 37885 ft 378 kts 267°